Weather History for KONP - January, 2013

Change the Weather History Date:

Monday, January 21, 2013

  Actual Average (KEUG) Record (KEUG)
Temperature  
Mean Temperature 44 °F 41 °F  
Max Temperature 55 °F 48 °F 63 °F (1925)
Min Temperature 33 °F 35 °F 6 °F (1930)
Degree Days  
Heating Degree Days 21 24  
Month to date heating degree days 517  
Since 1 July heating degree days 2474  
Cooling Degree Days 0 0  
Month to date cooling degree days 0  
Year to date cooling degree days 0  
Moisture  
Dew Point 31 °F    
Average Humidity 67    
Maximum Humidity 81    
Minimum Humidity 41    
Precipitation  
Precipitation 0.00 in 0.21 in 1.74 in (1993)
Month to date precipitation 4.87  
Year to date precipitation 4.87  
Sea Level Pressure  
Sea Level Pressure 30.16 in    
Wind  
Wind Speed 8 mph (East)    
Max Wind Speed 15 mph    
Max Gust Speed 18 mph    
Visibility 10 miles    
Events      
T = Trace of Precipitation, MM = Missing Value Source: NWS Daily Summary

Daily Weather History Graph

Daily Weather History Graph

Search for Another Location

Airport or City:

Trip Planner

Search our weather history database for the weather conditions in past years. The results will help you decide how hot, cold, wet, or windy it might be!

Date:

Astronomy

Jan. 21, 2013 Rise Set
Actual Time 7:45 AM PST 5:10 PM PST
Civil Twilight 7:13 AM PST 5:42 PM PST
Nautical Twilight 6:37 AM PST 6:18 PM PST
Astronomical Twilight 6:03 AM PST 6:52 PM PST
Moon 12:53 PM PST (1/21) 3:19 AM PST (1/21)
Length of Visible Light 10h 29m
Length of Day
9h 25m
Waxing Gibbous, 76% of the Moon is Illuminated
Jan 21
Waxing Gibbous
Jan 26
Full
Feb 3
Last Quarter
Feb 9
New
Feb 17
First Quarter

Hourly Weather History & Observations

Time (PST) Temp. Windchill Dew Point Humidity Pressure Visibility Wind Dir Wind Speed Gust Speed Precip Events Conditions
12:15 AM 37.4 °F 31.4 °F 30.2 °F 75% 30.23 in 10.0 mi East 8.1 mph - N/A   Clear
12:35 AM 37.4 °F 32.8 °F 28.4 °F 70% 30.23 in 10.0 mi East 5.8 mph - N/A   Clear
1:15 AM 37.4 °F 32.8 °F 28.4 °F 70% 30.22 in 10.0 mi East 5.8 mph - N/A   Clear
1:35 AM 37.4 °F 31.4 °F 28.4 °F 70% 30.22 in 10.0 mi East 8.1 mph - N/A   Clear
1:55 AM 37.4 °F 32.8 °F 28.4 °F 70% 30.22 in 10.0 mi East 5.8 mph - N/A   Clear
2:15 AM 37.4 °F 31.4 °F 28.4 °F 70% 30.22 in 10.0 mi East 8.1 mph - N/A   Clear
2:55 AM 35.6 °F 28.6 °F 28.4 °F 75% 30.22 in 10.0 mi East 9.2 mph - N/A   Clear
3:15 AM 35.6 °F 28.6 °F 28.4 °F 75% 30.22 in 10.0 mi East 9.2 mph - N/A   Clear
3:35 AM 35.6 °F 29.2 °F 28.4 °F 75% 30.21 in 10.0 mi East 8.1 mph - N/A   Clear
3:55 AM 35.6 °F 29.9 °F 28.4 °F 75% 30.21 in 10.0 mi East 6.9 mph - N/A   Clear
4:15 AM 35.6 °F 28.0 °F 28.4 °F 75% 30.19 in 10.0 mi East 10.4 mph - N/A   Clear
4:35 AM 35.6 °F 27.5 °F 28.4 °F 75% 30.17 in 10.0 mi East 11.5 mph - N/A   Clear
4:55 AM 35.6 °F 27.5 °F 28.4 °F 75% 30.17 in 10.0 mi East 11.5 mph - N/A   Clear
5:15 AM 35.6 °F 28.6 °F 28.4 °F 75% 30.16 in 10.0 mi East 9.2 mph - N/A   Clear
5:35 AM 35.6 °F 29.2 °F 28.4 °F 75% 30.16 in 10.0 mi ENE 8.1 mph - N/A   Clear
5:55 AM 35.6 °F 27.5 °F 28.4 °F 75% 30.16 in 10.0 mi East 11.5 mph - N/A   Clear
6:15 AM 33.8 °F 25.8 °F 28.4 °F 81% 30.16 in 10.0 mi East 10.4 mph - N/A   Clear
6:35 AM 33.8 °F 25.3 °F 28.4 °F 81% 30.16 in 10.0 mi East 11.5 mph - N/A   Clear
6:55 AM 33.8 °F 25.3 °F 28.4 °F 81% 30.15 in 10.0 mi East 11.5 mph - N/A   Clear
7:15 AM 33.8 °F 26.4 °F 28.4 °F 81% 30.16 in 10.0 mi East 9.2 mph - N/A   Clear
7:35 AM 33.8 °F 27.0 °F 28.4 °F 81% 30.16 in 10.0 mi East 8.1 mph - N/A   Clear
7:55 AM 33.8 °F 27.7 °F 28.4 °F 81% 30.17 in 10.0 mi East 6.9 mph - N/A   Clear
8:15 AM 33.8 °F 25.8 °F 28.4 °F 81% 30.17 in 10.0 mi East 10.4 mph - N/A   Clear
8:35 AM 35.6 °F 27.1 °F 30.2 °F 81% 30.18 in 10.0 mi East 12.7 mph - N/A   Clear
8:55 AM 35.6 °F 27.1 °F 30.2 °F 81% 30.18 in 10.0 mi East 12.7 mph 18.4 mph N/A   Clear
9:15 AM 37.4 °F 29.3 °F 30.2 °F 75% 30.18 in 10.0 mi East 12.7 mph - N/A   Clear
9:35 AM 39.2 °F 32.0 °F 30.2 °F 70% 30.17 in 10.0 mi East 11.5 mph - N/A   Clear
9:55 AM 41.0 °F 33.9 °F 30.2 °F 65% 30.18 in 10.0 mi East 12.7 mph - N/A   Clear
10:15 AM 41.0 °F 34.7 °F 30.2 °F 65% 30.19 in 10.0 mi East 10.4 mph - N/A   Clear
10:35 AM 42.8 °F 37.0 °F 32.0 °F 66% 30.19 in 10.0 mi East 10.4 mph - N/A   Clear
10:55 AM 44.6 °F 39.7 °F 32.0 °F 61% 30.19 in 10.0 mi East 9.2 mph - N/A   Clear
11:15 AM 46.4 °F 41.9 °F 32.0 °F 57% 30.19 in 10.0 mi East 9.2 mph - N/A   Clear
11:35 AM 48.2 °F - 32.0 °F 54% 30.19 in 10.0 mi East 6.9 mph - N/A   Clear
11:55 AM 50.0 °F - 32.0 °F 50% 30.19 in 10.0 mi East 3.5 mph - N/A   Clear
12:15 PM 51.8 °F - 32.0 °F 47% 30.17 in 10.0 mi East 5.8 mph - N/A   Clear
12:35 PM 51.8 °F - 32.0 °F 47% 30.16 in 10.0 mi East 5.8 mph - N/A   Clear
12:55 PM 53.6 °F - 32.0 °F 44% 30.16 in 10.0 mi East 4.6 mph - N/A   Clear
1:15 PM 53.6 °F - 32.0 °F 44% 30.16 in 10.0 mi ESE 4.6 mph - N/A   Clear
1:35 PM 51.8 °F - 33.8 °F 50% 30.15 in 7.0 mi WSW 3.5 mph - N/A   Clear
1:55 PM 51.8 °F - 35.6 °F 54% 30.15 in 7.0 mi Calm Calm - N/A   Clear
2:15 PM 55.4 °F - 32.0 °F 41% 30.14 in 10.0 mi East 3.5 mph - N/A   Clear
2:35 PM 55.4 °F - 32.0 °F 41% 30.14 in 10.0 mi East 3.5 mph - N/A   Clear
2:55 PM 53.6 °F - 35.6 °F 51% 30.13 in 5.0 mi East 6.9 mph - N/A   Haze
3:15 PM 55.4 °F - 33.8 °F 44% - 10.0 mi East 5.8 mph - N/A   Clear
3:35 PM 55.4 °F - 32.0 °F 41% 30.14 in 10.0 mi East 3.5 mph - N/A   Clear
3:55 PM 53.6 °F - 37.4 °F 54% 30.14 in 7.0 mi Calm Calm - N/A   Clear
4:15 PM 51.8 °F - 41.0 °F 67% 30.14 in 4.0 mi Calm Calm - N/A   Haze
4:35 PM 51.8 °F - 33.8 °F 50% 30.14 in 10.0 mi East 3.5 mph - N/A   Clear
4:55 PM 50.0 °F - 33.8 °F 54% 30.14 in 10.0 mi East 3.5 mph - N/A   Clear
5:15 PM 46.4 °F 45.2 °F 33.8 °F 62% 30.14 in 10.0 mi East 3.5 mph - N/A   Clear
5:35 PM 44.6 °F - 33.8 °F 66% 30.15 in 10.0 mi Calm Calm - N/A   Clear
5:55 PM 42.8 °F - 35.6 °F 76% 30.15 in 7.0 mi Calm Calm - N/A   Clear
6:15 PM 42.8 °F 38.6 °F 33.8 °F 70% 30.14 in 10.0 mi East 6.9 mph - N/A   Clear
6:35 PM 42.8 °F 37.5 °F 33.8 °F 70% 30.13 in 10.0 mi East 9.2 mph - N/A   Clear
6:55 PM 42.8 °F 37.5 °F 32.0 °F 66% 30.13 in 10.0 mi East 9.2 mph - N/A   Clear
7:15 PM 41.0 °F 34.7 °F 32.0 °F 70% 30.12 in 10.0 mi East 10.4 mph - N/A   Clear
7:35 PM 41.0 °F 34.3 °F 32.0 °F 70% 30.12 in 10.0 mi East 11.5 mph - N/A   Clear
7:55 PM 41.0 °F 34.7 °F 32.0 °F 70% 30.12 in 10.0 mi East 10.4 mph - N/A   Clear
8:15 PM 41.0 °F 35.8 °F 32.0 °F 70% 30.12 in 10.0 mi East 8.1 mph - N/A   Clear
8:35 PM 41.0 °F 34.7 °F 32.0 °F 70% 30.12 in 10.0 mi East 10.4 mph - N/A   Clear
8:55 PM 39.2 °F 32.5 °F 32.0 °F 75% 30.12 in 10.0 mi East 10.4 mph - N/A   Clear
9:15 PM 39.2 °F 33.0 °F 32.0 °F 75% 30.12 in 10.0 mi East 9.2 mph - N/A   Clear
9:35 PM 39.2 °F 32.5 °F 32.0 °F 75% 30.12 in 10.0 mi East 10.4 mph - N/A   Clear
9:55 PM 39.2 °F 32.5 °F 32.0 °F 75% 30.13 in 10.0 mi East 10.4 mph - N/A   Clear
10:15 PM 37.4 °F 29.3 °F 32.0 °F 81% 30.11 in 10.0 mi East 12.7 mph - N/A   Clear
10:35 PM 37.4 °F 28.5 °F 32.0 °F 81% 30.11 in 10.0 mi East 15.0 mph - N/A   Clear
10:55 PM 37.4 °F 28.9 °F 32.0 °F 81% 30.10 in 10.0 mi East 13.8 mph - N/A   Clear
11:15 PM 37.4 °F 28.9 °F 30.2 °F 75% 30.09 in 10.0 mi East 13.8 mph - N/A   Clear
11:55 PM 37.4 °F 32.8 °F 30.2 °F 75% 30.11 in 10.0 mi ESE 5.8 mph - N/A   Clear